Regional Weather Roundup
Issued by NWS New Orleans/Baton Rouge, LA

Home | Current Version | Previous Version | Text Only | Print | Product List | Glossary On
Versions: 1 2 3 4 5 6 7 8 9 10 11 12 13 14 15 16 17 18 19 20 21 22 23 24 25 26 27 28 29 30 31 32 33 34 35 36 37 38 39 40 41 42 43 44 45 46 47 48 49 50
000
ASUS44 KLIX 282311
RWRLIX
NEW ORLEANS REGIONAL WEATHER ROUNDUP
NATIONAL WEATHER SERVICE NEW ORLEANS LA
600 PM CDT FRI AUG 28 2015

NOTE: "FAIR" INDICATES FEW OR NO CLOUDS BELOW 12,000 FEET WITH NO
      SIGNIFICANT WEATHER AND/OR OBSTRUCTIONS TO VISIBILITY.
      SKY/WX - SKY CONDITION AND SIGNIFICANT WEATHER.
      TMP - AIR TEMPERATURE.     DP    - DEWPOINT TEMPERATURE.
      RH  - RELATIVE HUMIDITY.   PRES  - PRESSURE.
      HI  - HEAT INDEX.          WCI   - WIND CHILL INDEX.

*  THESE STATIONS ARE NOT NWS OR FAA STATIONS AND ARE NOT UNDER
   NWS QUALITY CONTROL.

LAZ038-040-048-061>063-065>067-069-290000-
SOUTHEAST LOUISIANA

CITY           SKY/WX    TMP DP  RH WIND       PRES   REMARKS
N.O. AUDUBON     N/A     88  68  50 MISG        N/A
N.O. INTL ARPT MOSUNNY   88  63  43 E9        29.95R
N.O. LAKEFRONT SUNNY     86  67  52 E9        29.96S
N.O. DOWNTOWN*   N/A     88  64  45 NE9       29.96S
RESERVE*         N/A     90  65  42 E6        29.95R
SLIDELL        SUNNY     86  67  52 SE9       29.95R
BATON ROUGE    SUNNY     90  61  37 E3        29.95S
BOOTHVILLE     MOSUNNY   83  70  64 E13       29.96R
BELLE CHASSE   MOSUNNY   86  67  52 E9        29.95S
BOGALUSA*      NOT AVBL
GALLIANO*      CLEAR     89  66  46 CALM      29.95R
NEW ROADS*       N/A     87  61  41 NW5       29.96S
GONZALES*        N/A     89  63  42 CALM      29.94R
HAMMOND*       MOSUNNY   90  64  43 S12       29.97R
HOUMA*         NOT AVBL
PORT FOURCHON* CLEAR     86  70  58 NW5       29.95S

$$

MSZ070-080>082-290000-
SOUTHERN MISSISSIPPI

CITY           SKY/WX    TMP DP  RH WIND       PRES   REMARKS
MCCOMB         MOSUNNY   90  61  37 CALM      29.96S
GULFPORT       SUNNY     85  66  53 SE10      29.96R
BILOXI         SUNNY     84  67  56 SE12      29.96S
PASCAGOULA     SUNNY     84  67  56 S9        29.97S
STENNIS ARPT*  SUNNY     84  61  45 SE9       29.97R

$$

COASTAL OBSERVATIONS
LAKE AND NEARSHORE STATIONS

STATION/POSITION TIME  TEMP    WIND        PRES    WAVE
                       AIR SEA DIR/SP/G            HT/PER
                 (UTC) (F)     (DEG/KT/KT) (MB)    (FT/S)

OFFSHORE STATIONS

STATION/POSITION TIME  TEMP    WIND        PRES    WAVE
                       AIR SEA DIR/SP/G            HT/PER
                 (UTC) (F)     (DEG/KT/KT) (MB)    (FT/S)
64 S DAUPHIN ISL 2250   82 87  160/  6/  8 1015.1    1

$$




USA.gov is the U.S. government's official web portal to all federal, state and local government web resources and services.